GONETS D1 7

Satellite information

Favourite Embed

Satellite Type and Status

PAYLOADIN ORBIT

Key statistics

Satellite GONETS D1 7 at a glance.

Uptime

8653

Days in orbit

Revolutions

≈ 12.6

Per day

Orbit

LEO

Low Earth Orbit

Inclination

82.5

Latest

Satellite identification and parameters

Extended collection of information and parameters for GONETS D1 7.

Object identification

Identified? True

Debris? False

Object name: GONETS D1 7

International designator: 2001-058D

Object number (NORAD): 27058

Object ID (CCSDS): 27058

Country: COMMONWEALTH OF INDEPENDENT STATES (CIS)

Current information (Y/N): Y

RCS size: MEDIUM

Orbital parameters

Period: 114.098 minutes

Inclination: 82.5373 deg

SMA: 7792.516 km

Apoapsis: 1415.992 km

Periapsis: 1412.771 km

RAAN: 24.2945 deg

Eccentricy: 0.00020663

Argument of periapsis: 280.3886 deg

Mean anomaly: 79.6972 deg

Mean motion: 12.62077943 rev/day

Mean motion (dot): 0.00000005 rev/day2

B* drag term: -0.000029709097 1/REarth

Two-line elements (TLE)

Creation date: Sept. 6, 2025, 2:09 a.m.

Reference frame: TEME

Reference center: EARTH

Epoch: Sept. 5, 2025, 6:54 p.m. UTC

TLE line 0: 0 GONETS D1 7

TLE line 1: 1 27058U 01058D 25248.78768944 .00000005 00000-0 -29709-4 0 9997

TLE line 2: 2 27058 82.5373 24.2945 0002066 280.3886 79.6972 12.62077943 91110

Live tracking on map

Real-time ground track for satellite GONETS D1 7.

In-orbit conjunctions

There are no conjunctions computed for GONETS D1 7, at the moment. Check back to stay up to date, as we update our databases every day.

Go to all conjunctions

Associated space launch

Gonets- satellite were the civilian derivate of the military Strela-3 satellite system. The Gonets system was offered to support international health organizations to meet their global communications needs for the transfer of medical data and records to remote sites. Strela-3 was second generation of strategic store-dump military communications satellite. Development of this generation to replace the first generation Strela-1M and Strela-2M satellites began in 1973.

GONETS D1 7 was lifted into orbit during the mission ‘Tsiklon-3 | Strela-3 128 to 130 & Gonets 10 to 12’, on board a Tsiklon-3 space rocket.

The launch took place on Dec. 28, 2001, 3:24 a.m. from 32/1.

For more information about the launch, click the button.

Launch to space Tsiklon-3 | Strela-3 128 to 130 & Gonets 10 to 12
Tsiklon-3 | Strela-3 128 to 130 & Gonets 10 to 12

Agency: N/A

Status: Launch Successful

Launch date: Dec. 28, 2001, 3:24 a.m. UTC

Rocket: Tsiklon-3

Launch pad: 32/1

Location: Plesetsk Cosmodrome, Russian Federation

...

Latest news about this satellite

There are no fresh news available about this satellite. Check back as we update our databases every day.


Newsletter sign-up

Weekly statistics, charts and insights to help you stay on top of the space industry.